Weather Roundup
Issued by NWS Springfield, MO

Home | Current Version | Previous Version | Text Only | Print | Product List | Glossary On
Versions: 1 2 3 4 5 6 7 8 9 10 11 12 13 14 15 16 17 18 19 20 21 22 23 24 25 26 27 28 29 30 31 32 33 34 35 36 37 38 39 40 41 42 43 44 45 46 47 48 49 50
000
NZUS99 KSGF 200159
HRRSGF

HOURLY WEATHER
NATIONAL WEATHER SERVICE SPRINGFIELD MO
900 PM CDT SAT APR 19 2014

......SGF CWA......

CITY           SKY/WX    TMP DP  RH WIND       PRES   REMARKS
SPRINGFIELD    PTCLDY    60  45  57 SE7       30.12R
JOPLIN         PTCLDY    65  44  46 S7        30.11R
WEST PLAINS    CLEAR     64  40  41 S5        30.17R
ROLLA          CLEAR     65  38  36 S6        30.12R
OSAGE BEACH    PTCLDY    70  37  30 S3        30.14R
BRANSON        PTCLDY    64  45  48 SE7       30.14S

......SURROUNDING SGF CWA......

CITY           SKY/WX    TMP DP  RH WIND       PRES   REMARKS
CHANUTE        MOCLDY    64  45  49 SE8       30.08R
PARSONS        MOCLDY    68  45  43 SE6       30.09R
COFFEYVILLE    MOCLDY    67  47  48 SE9       30.08R
EMPORIA        PTCLDY    65  45  48 SE12      30.04R
SILOAM SPRINGS CLEAR     66  45  45 SE6       30.13S
HARRISON AR    CLEAR     65  46  50 SE6       30.15R
NEAR YELLVILLE CLEAR     68  43  40 CALM      30.14R

......KANSAS AND MISSOURI......

CITY           SKY/WX    TMP DP  RH WIND       PRES   REMARKS
KANSAS CTY INT PTCLDY    61  43  51 S9        30.08R
DOWNTOWN KC    MOCLDY    69  43  38 S7        30.07R
COLUMBIA       PTCLDY    65  41  41 E7        30.13R
SEDALIA        MOCLDY    66  44  45 S6        30.12R
ST JOSEPH      CLEAR     66  44  45 S9        30.06R
ST LOUIS       PTCLDY    67  42  40 E8        30.17R
SPIRIT OF STL  PTCLDY    65  40  39 E5        30.15R
KIRKSVILLE     CLEAR     56  42  59 SE8       30.12S
WICHITA        PTCLDY    68  48  48 S13       30.02R
TOPEKA         PTCLDY    69  45  41 SE8       30.05R
OLATHE         PTCLDY    64  45  49 S7        30.08R

......TENNESSEE......

CITY           SKY/WX    TMP DP  RH WIND       PRES   REMARKS
MEMPHIS        PTCLDY    68  43  40 NE5       30.15R
NASHVILLE      PTCLDY    66  40  38 N6        30.16R

......ARKANSAS.......

CITY           SKY/WX    TMP DP  RH WIND       PRES   REMARKS
FAYETTEVILLE   CLEAR     60  49  66 CALM      30.14R
FT SMITH       MOCLDY    68  52  56 VRB3      30.10R
LITTLE ROCK    PTCLDY    65  50  58 SE5       30.14S

......OKLAHOMA.......

CITY           SKY/WX    TMP DP  RH WIND       PRES   REMARKS
TULSA          CLOUDY    71  49  45 S7        30.07R
PONCA CITY     MOCLDY    70  47  43 S8        30.04S
MCALESTER      MOCLDY    68  48  48 S3        30.10R
OKLAHOMA CITY  MOCLDY    66  49  54 S9        30.07R

......IOWA............

CITY           SKY/WX    TMP DP  RH WIND       PRES   REMARKS
DES MOINES     PTCLDY    67  43  41 S9        30.06R
QUAD CITIES    PTCLDY    57  35  43 SE5       30.14R

......ILLINOIS........

CITY           SKY/WX    TMP DP  RH WIND       PRES   REMARKS
QUINCY         CLEAR     60  34  37 SE7       30.15R
CHICAGO        CLOUDY    54  35  48 E6        30.23R



USA.gov is the U.S. government's official web portal to all federal, state and local government web resources and services.